[[{"header":{"parameterUnit":"m.s-1","parameterCategory":2,"la1":30.2991,"la2":30.254,"lo1":-89.0895,"lo2":-89.0444,"dy":0.0017,"dx":0.0017,"nx":28,"ny":28,"refTime":"2024-04-30T03:00:00:Z","depth":"0","parameterNumber":2,"parameterNumberName":"U-component_of_CURRENTS"},"data":[0,0,0,0,0,0,0,0,0,0,0,0,0,0,0,0,0,0,0,0,0,0,0,0,0,0,0,0,0,0,0,0,0,0,0,0,0,0,0,0,0,0,0,0,0,0,0,0,0,0,0,0,0,0,0,0,0,0,-0.2237,-0.2237,0,-0.22,-0.22,-0.2199,-0.2122,-0.2121,-0.212,-0.2118,-0.2029,-0.2027,-0.2026,0,0,0,0,0,0,0,0,0,0,0,0,0,-0.2181,-0.2183,-0.2237,-0.2237,-0.2237,-0.22,-0.22,-0.2199,-0.2122,-0.2121,-0.2119,-0.2118,-0.2029,-0.2028,-0.2026,0,0,0,0,0,0,0,0,0,0,0,0,0,-0.2179,-0.2184,-0.2237,-0.2196,-0.2192,-0.2201,-0.22,-0.2199,-0.2123,-0.2121,-0.2119,-0.2117,-0.2029,-0.2028,-0.2026,-0.2054,0,0,-0.2021,-0.202,0,0,0,0,0,0,0,0,-0.2179,-0.2181,-0.2202,-0.2199,-0.2195,-0.2166,-0.2147,-0.2149,-0.2123,-0.2146,-0.2118,-0.2116,-0.2073,-0.2067,-0.2062,-0.205,-0.2046,-0.202,-0.2019,-0.2019,-0.2018,0,0,0,0,0,0,0,-0.218,-0.2182,-0.222,-0.2202,-0.2198,-0.2159,-0.2157,-0.2147,-0.2118,-0.2144,-0.2139,-0.214,-0.207,-0.2064,-0.2059,-0.2045,-0.2021,-0.2019,-0.2018,-0.2017,-0.2019,-0.202,0,0,0,0,0,0,-0.2195,-0.2183,-0.2221,-0.2219,-0.2185,-0.2162,-0.216,-0.2175,-0.2119,-0.211,-0.2142,-0.2137,-0.2068,-0.2061,-0.2056,-0.2067,-0.2019,-0.2017,-0.2016,-0.2018,-0.2019,-0.202,0,0,0,0,0,0,-0.2195,-0.22,-0.2222,-0.22,-0.2201,-0.2166,-0.2184,-0.2175,-0.2173,-0.2118,-0.2107,-0.2148,-0.2066,-0.2058,-0.2054,-0.2063,-0.2016,-0.2015,-0.2016,-0.2018,-0.202,-0.2102,0,0,0,0,0,0,-0.2193,-0.22,-0.2227,-0.2203,-0.2203,-0.2249,-0.2185,-0.2176,-0.2178,-0.2171,-0.2121,-0.211,-0.2064,-0.2057,-0.2053,-0.206,-0.2013,-0.2015,-0.2017,-0.2019,-0.2098,-0.2106,-0.2113,0,0,0,0,0,-0.2192,-0.2251,-0.2229,-0.2234,-0.2239,-0.2251,-0.2249,-0.2213,-0.2181,-0.22,-0.2155,-0.2112,-0.2066,-0.2058,-0.2052,-0.2059,-0.2014,-0.2017,-0.2019,-0.2094,-0.2104,-0.2113,0,0,0,0,0,0,-0.2265,-0.2248,-0.2224,-0.228,-0.2271,-0.224,-0.2267,-0.2231,-0.2213,-0.2205,-0.2136,-0.2125,-0.2123,-0.2089,-0.2081,-0.2065,-0.2029,-0.2031,-0.2088,-0.2098,-0.2105,-0.2121,-0.2012,0,0,0,0,0,-0.2289,-0.2319,-0.2292,-0.2343,-0.2342,-0.2303,-0.2307,-0.2279,-0.2255,-0.2245,-0.2204,-0.2161,-0.2131,-0.2113,-0.2092,-0.2093,-0.2012,-0.209,-0.2098,-0.2105,-0.2114,-0.2024,-0.2024,-0.2028,-0.2028,-0.2028,0,0,-0.2336,-0.2331,-0.235,-0.2358,-0.2349,-0.2357,-0.2301,-0.2322,-0.2315,-0.2241,-0.2237,-0.22,-0.2142,-0.2135,-0.2129,-0.2104,-0.2051,-0.2108,-0.2114,-0.212,-0.2026,-0.2025,-0.2025,-0.203,-0.203,-0.2029,0,0,-0.2434,-0.2436,-0.2479,-0.2467,-0.2458,-0.2429,-0.2438,-0.2409,-0.2385,-0.2383,-0.2315,-0.2287,-0.2254,-0.2201,-0.217,-0.2214,-0.2104,-0.2205,-0.2246,-0.2158,-0.2157,-0.2154,-0.2001,-0.1984,-0.2198,-0.2198,-0.2198,0,-0.2493,-0.2521,-0.2499,-0.2521,-0.2511,-0.2462,-0.2482,-0.2464,-0.2433,-0.2408,-0.2397,-0.2314,-0.2282,-0.2227,-0.2247,-0.223,-0.214,-0.2213,-0.2167,-0.2163,-0.2159,-0.2003,-0.1983,-0.2202,-0.2202,-0.2201,-0.2201,0,-0.2594,-0.2606,-0.2638,-0.2629,-0.2625,-0.2645,-0.2596,-0.2587,-0.2549,-0.2508,-0.2467,-0.2414,-0.2346,-0.2341,-0.2315,-0.2267,-0.2195,-0.2193,-0.214,-0.2163,-0.1996,-0.1975,-0.2208,-0.2207,-0.2205,-0.2204,0,0,-0.2737,-0.2711,-0.2714,-0.269,-0.267,-0.2665,-0.2666,-0.2628,-0.2587,-0.2571,-0.2508,-0.2489,-0.2435,-0.2398,-0.2341,-0.229,-0.2186,-0.2245,-0.2238,-0.2086,-0.1933,-0.1809,-0.1771,-0.2173,-0.2172,-0.217,-0.1808,0,-0.2812,-0.2839,-0.2809,-0.2816,-0.2812,-0.275,-0.2734,-0.2691,-0.264,-0.2574,-0.2513,-0.2443,-0.2457,-0.2399,-0.2362,-0.2225,-0.2142,-0.2281,-0.1939,-0.1928,-0.1811,-0.1749,-0.1704,-0.1373,-0.1786,-0.1782,-0.178,0,-0.2904,-0.2891,-0.2909,-0.2837,-0.2831,-0.2828,-0.2745,-0.2724,-0.2632,-0.2581,-0.2515,-0.2442,-0.2347,-0.2362,-0.2144,-0.2227,-0.2099,-0.2005,-0.1988,-0.1836,-0.1766,-0.1427,-0.1317,-0.1343,-0.1745,-0.1748,-0.175,0,-0.2961,-0.295,-0.2948,-0.2933,-0.2868,-0.285,-0.2811,-0.2732,-0.2652,-0.2563,-0.2468,-0.2382,-0.2249,-0.2151,-0.1969,-0.2039,-0.1705,-0.1755,-0.1508,-0.1494,-0.1371,-0.135,-0.1245,-0.1602,-0.1603,-0.1604,-0.1605,0,-0.3026,-0.3012,-0.2968,-0.2957,-0.29,-0.2876,-0.279,-0.2738,-0.2625,-0.248,-0.2457,-0.2289,-0.2196,-0.1994,-0.1904,-0.1598,-0.1624,-0.1483,-0.1397,-0.1392,-0.1379,-0.1329,-0.1383,-0.159,-0.1593,-0.1596,-0.1598,0,-0.3052,-0.305,-0.3005,-0.2946,-0.2919,-0.2868,-0.2727,-0.2629,-0.257,-0.2369,-0.2319,-0.2146,-0.187,-0.1735,-0.1486,-0.1423,-0.1172,-0.1102,-0.107,-0.099,-0.0836,-0.0896,-0.0671,-0.0648,-0.0769,-0.0764,-0.0759,0,-0.3066,-0.3055,-0.2963,-0.2881,-0.2839,-0.2754,-0.2647,-0.2588,-0.2456,-0.2239,-0.2101,-0.1832,-0.1564,-0.1162,-0.102,-0.0767,-0.0868,-0.06,-0.0765,-0.0787,-0.0791,-0.0882,-0.089,-0.0596,-0.059,-0.0586,-0.0583,0,-0.2997,-0.2961,-0.2866,-0.2729,-0.2621,-0.2482,-0.2347,-0.2248,-0.2124,-0.1964,-0.1654,-0.1454,-0.1099,-0.0805,-0.0548,-0.044,-0.0631,-0.05,-0.0543,-0.0656,-0.0727,-0.0675,-0.0841,-0.0544,-0.0548,-0.0551,-0.0553,-0.0554,-0.2851,-0.2746,-0.2597,-0.2452,-0.2333,-0.214,-0.1973,-0.1834,-0.1604,-0.1288,-0.1253,-0.089,-0.0721,-0.0342,-0.0247,-0.0143,-0.0246,-0.0168,-0.0225,-0.0304,-0.0351,-0.04,-0.002,-0.0021,-0.0021,-0.0022,-0.0022,0,-0.2556,-0.2438,-0.2304,-0.2074,-0.1878,-0.1906,-0.1675,-0.1475,-0.1158,-0.0936,-0.0666,-0.0337,-0.0137,-0.0048,0.005,0.0076,-0.0017,0.0057,-0.0121,-0.0133,-0.0159,-0.023,0.0145,0.0145,0.0145,0.0145,0.0145,0.0145,-0.2356,-0.2108,-0.2049,-0.165,-0.1521,-0.1207,-0.105,-0.0832,-0.0633,-0.0209,0.0045,0.0189,0.0167,0.0119,0.0117,0.0119,0.0012,0.0053,0.0002,-0.0109,-0.014,-0.0169,-0.025,0.0114,0.0114,0.0008,0.0007,0.0007]},{"header":{"parameterUnit":"m.s-1","parameterCategory":2,"la1":30.2991,"la2":30.254,"lo1":-89.0895,"lo2":-89.0444,"dy":0.0017,"dx":0.0017,"nx":28,"ny":28,"refTime":"2024-04-30T03:00:00:Z","depth":"0","parameterNumber":3,"parameterNumberName":"V-component_of_CURRENTS"},"data":[0,0,0,0,0,0,0,0,0,0,0,0,0,0,0,0,0,0,0,0,0,0,0,0,0,0,0,0,0,0,0,0,0,0,0,0,0,0,0,0,0,0,0,0,0,0,0,0,0,0,0,0,0,0,0,0,0,0,-0.0846,-0.0844,0,-0.0667,-0.0665,-0.0663,-0.0556,-0.0556,-0.0555,-0.0555,-0.0256,-0.0249,-0.0241,0,0,0,0,0,0,0,0,0,0,0,0,0,-0.1033,-0.1031,-0.0846,-0.0844,-0.0842,-0.0668,-0.0665,-0.0662,-0.0556,-0.0556,-0.0555,-0.0555,-0.0259,-0.025,-0.024,0,0,0,0,0,0,0,0,0,0,0,0,0,-0.091,-0.103,-0.0846,-0.077,-0.0762,-0.0668,-0.0665,-0.0661,-0.0556,-0.0556,-0.0555,-0.0555,-0.0262,-0.025,-0.0239,-0.0173,0,0,-0.0203,-0.0198,0,0,0,0,0,0,0,0,-0.0918,-0.0903,-0.0783,-0.0775,-0.0766,-0.0636,-0.0621,-0.0493,-0.0556,-0.0631,-0.0555,-0.0555,-0.0374,-0.0353,-0.0318,-0.0159,-0.0147,-0.0202,-0.0195,-0.019,-0.0187,0,0,0,0,0,0,0,-0.0926,-0.091,-0.0772,-0.0781,-0.0771,-0.0724,-0.0707,-0.0597,-0.0502,-0.0624,-0.0617,-0.0602,-0.0368,-0.033,-0.031,-0.0142,-0.0203,-0.0192,-0.0185,-0.0181,0.01,0.01,0,0,0,0,0,0,-0.0958,-0.0918,-0.0778,-0.0767,-0.0846,-0.0722,-0.0702,-0.0675,-0.0505,-0.0481,-0.0602,-0.0598,-0.035,-0.0324,-0.0299,-0.0199,-0.019,-0.0179,-0.0173,0.0099,0.01,0.01,0,0,0,0,0,0,-0.0962,-0.0946,-0.0785,-0.0842,-0.0818,-0.072,-0.069,-0.0672,-0.0631,-0.0491,-0.0463,-0.0581,-0.0348,-0.0315,-0.0211,-0.0187,-0.0174,-0.0164,0.0099,0.0099,0.01,-0.0007,0,0,0,0,0,0,-0.0968,-0.0949,-0.0941,-0.0844,-0.0816,-0.073,-0.069,-0.0669,-0.0624,-0.0616,-0.0463,-0.0435,-0.0345,-0.0229,-0.0199,-0.0171,-0.0155,0.0098,0.0099,0.01,-0.0004,-0.001,-0.0015,0,0,0,0,0,-0.0975,-0.0953,-0.0941,-0.0924,-0.0808,-0.073,-0.0711,-0.0638,-0.0624,-0.0601,-0.0512,-0.044,-0.0202,-0.022,-0.0185,-0.0152,0.0098,0.0099,0.01,-0.0002,-0.0009,-0.0015,0,0,0,0,0,0,-0.1026,-0.0938,-0.0923,-0.0876,-0.0816,-0.0713,-0.0681,-0.0646,-0.0558,-0.0549,-0.043,-0.0395,-0.0293,-0.0213,-0.0236,-0.0071,-0.0041,-0.0033,-0.013,-0.0135,-0.0141,-0.0161,-0.0145,0,0,0,0,0,-0.104,-0.1,-0.0922,-0.0886,-0.0858,-0.0778,-0.074,-0.0696,-0.0609,-0.0571,-0.0473,-0.0365,-0.0261,-0.0196,-0.0092,0.0001,0.005,0.0043,0.0038,0.0032,0.0038,0.0084,0.0082,0.0104,0.0104,0.0104,0,0,-0.1052,-0.0998,-0.0977,-0.0896,-0.084,-0.0796,-0.0752,-0.0694,-0.0656,-0.0549,-0.0464,-0.0377,-0.0243,-0.0144,-0.009,-0.0072,0.0055,0.0034,0.0028,0.0038,0.0085,0.0083,0.0081,0.0104,0.0104,0.0104,0,0,-0.1048,-0.1008,-0.0974,-0.0931,-0.0859,-0.0808,-0.0801,-0.0709,-0.0665,-0.0587,-0.0501,-0.0416,-0.0255,-0.0161,-0.0091,-0.0064,0.0018,-0.0024,-0.0055,-0.0012,-0.0014,-0.0016,0.0045,0.005,-0.0022,-0.0022,-0.0022,0,-0.1069,-0.1015,-0.0955,-0.0917,-0.0882,-0.0822,-0.0788,-0.0733,-0.0625,-0.0583,-0.0573,-0.0367,-0.0263,-0.0137,-0.0128,-0.0075,-0.0036,-0.0045,-0.0023,-0.0023,-0.0023,0.004,0.0047,-0.0027,-0.0026,-0.0026,-0.0025,0,-0.1033,-0.1005,-0.098,-0.0915,-0.0873,-0.0832,-0.0763,-0.0719,-0.0676,-0.0619,-0.0512,-0.04,-0.0276,-0.0234,-0.0165,-0.0092,-0.0061,-0.0046,-0.0017,-0.0032,0.0036,0.0045,-0.0034,-0.0032,-0.0031,-0.003,0,0,-0.1034,-0.097,-0.0963,-0.0941,-0.0871,-0.0824,-0.0776,-0.0696,-0.0656,-0.0583,-0.0524,-0.0377,-0.0337,-0.0256,-0.0171,-0.0131,-0.0094,-0.0092,-0.0088,-0.0051,0.0011,0.0073,0.009,-0.0088,-0.0087,-0.0086,0.0056,0,-0.1023,-0.0974,-0.0937,-0.0892,-0.086,-0.0807,-0.0762,-0.0692,-0.0633,-0.0567,-0.0476,-0.0384,-0.0338,-0.0285,-0.0242,-0.0122,-0.0075,-0.0133,0.0038,0.0044,0.0084,0.01,0.013,0.0262,0.0066,0.0067,0.0068,0,-0.0994,-0.0961,-0.0928,-0.0876,-0.0856,-0.0825,-0.0743,-0.0695,-0.0603,-0.0563,-0.049,-0.0418,-0.0315,-0.0304,-0.0139,-0.0182,-0.0091,-0.0021,-0.0014,0.0089,0.0123,0.0249,0.0287,0.0323,0.0083,0.0082,0.0081,0,-0.1005,-0.0952,-0.0928,-0.0909,-0.0844,-0.0815,-0.0773,-0.069,-0.064,-0.0563,-0.0527,-0.042,-0.0346,-0.0253,-0.0096,-0.012,0.0068,0.0056,0.02,0.0206,0.0292,0.0304,0.0372,0.0157,0.0157,0.0156,0.0156,0,-0.0999,-0.0973,-0.0933,-0.0916,-0.0868,-0.0825,-0.0768,-0.0717,-0.0652,-0.0579,-0.0526,-0.0444,-0.0335,-0.0208,-0.0099,0.0096,0.0074,0.0209,0.0248,0.0258,0.0265,0.0351,0.0352,0.0162,0.0161,0.0159,0.0159,0,-0.0997,-0.0988,-0.0944,-0.089,-0.0874,-0.0831,-0.0766,-0.0717,-0.0674,-0.0585,-0.0562,-0.0445,-0.0275,-0.0146,0.004,0.0123,0.0333,0.0355,0.0369,0.0407,0.0546,0.054,0.0681,0.0753,0.0519,0.0521,0.0524,0,-0.0988,-0.097,-0.092,-0.0891,-0.0862,-0.081,-0.0768,-0.0725,-0.0671,-0.0555,-0.0499,-0.0345,-0.0178,0.0097,0.0249,0.0448,0.0475,0.0584,0.054,0.0574,0.0596,0.0575,0.0624,0.0618,0.0621,0.0623,0.0625,0,-0.0937,-0.0925,-0.0886,-0.0842,-0.0802,-0.0754,-0.0695,-0.066,-0.0586,-0.0507,-0.0346,-0.0217,0.0031,0.0265,0.0484,0.0596,0.0614,0.0635,0.0665,0.0682,0.0672,0.0753,0.0509,0.0644,0.0642,0.064,0.0639,0.0639,-0.0874,-0.0843,-0.0802,-0.0751,-0.0718,-0.0665,-0.0594,-0.0526,-0.0424,-0.0235,-0.0173,0.0088,0.0273,0.0589,0.0684,0.0836,0.0806,0.088,0.0875,0.0855,0.0907,0.0715,0.0889,0.0888,0.0888,0.0888,0.0887,0,-0.0763,-0.0744,-0.0703,-0.0643,-0.0589,-0.0597,-0.0506,-0.0406,-0.0241,-0.0066,0.0128,0.0472,0.0674,0.0814,0.0974,0.1051,0.1054,0.1087,0.1045,0.109,0.0924,0.0908,0.11,0.11,0.11,0.11,0.11,0.11,-0.0696,-0.0637,-0.0631,-0.0522,-0.0483,-0.0372,-0.0301,-0.0159,-0.0006,0.0332,0.0601,0.0804,0.0954,0.1004,0.1132,0.1176,0.1232,0.123,0.1278,0.1116,0.1094,0.1074,0.1058,0.1278,0.1278,0.1447,0.1448,0.1449]}],[{"header":{"parameterUnit":"m.s-1","parameterCategory":2,"la1":30.2991,"la2":30.254,"lo1":-89.0895,"lo2":-89.0444,"dy":0.0017,"dx":0.0017,"nx":28,"ny":28,"refTime":"2024-04-30T03:00:00:Z","depth":"2","parameterNumber":2,"parameterNumberName":"U-component_of_CURRENTS"},"data":[0,0,0,0,0,0,0,0,0,0,0,0,0,0,0,0,0,0,0,0,0,0,0,0,0,0,0,0,0,0,0,0,0,0,0,0,0,0,0,0,0,0,0,0,0,0,0,0,0,0,0,0,0,0,0,0,0,0,-0.1594,-0.1592,0,-0.1566,-0.1566,-0.1567,-0.1581,-0.1581,-0.158,-0.158,-0.1502,-0.15,-0.1499,0,0,0,0,0,0,0,0,0,0,0,0,0,-0.1604,-0.1605,-0.1594,-0.1592,-0.1591,-0.1566,-0.1566,-0.1567,-0.1581,-0.1581,-0.158,-0.158,-0.1503,-0.1501,-0.1498,0,0,0,0,0,0,0,0,0,0,0,0,0,-0.1601,-0.1606,-0.1594,-0.1586,-0.1585,-0.1566,-0.1566,-0.1567,-0.1581,-0.1581,-0.158,-0.158,-0.1503,-0.1501,-0.1498,-0.1491,0,0,-0.149,-0.1489,0,0,0,0,0,0,0,0,-0.1602,-0.1603,-0.1589,-0.1587,-0.1585,-0.1566,-0.1541,-0.1535,-0.1581,-0.1595,-0.158,-0.1579,-0.1512,-0.1508,-0.1521,-0.1488,-0.1484,-0.149,-0.1488,-0.1487,-0.1486,0,0,0,0,0,0,0,-0.1602,-0.1603,-0.1594,-0.1587,-0.1585,-0.1565,-0.1566,-0.1541,-0.1564,-0.1593,-0.1591,-0.157,-0.1512,-0.1524,-0.1519,-0.1483,-0.149,-0.1487,-0.1486,-0.1485,-0.1433,-0.1434,0,0,0,0,0,0,-0.1586,-0.1604,-0.1595,-0.1592,-0.1579,-0.1564,-0.1566,-0.1582,-0.1565,-0.1559,-0.1571,-0.1571,-0.1529,-0.1522,-0.1516,-0.1507,-0.1487,-0.1485,-0.1483,-0.1433,-0.1433,-0.1434,0,0,0,0,0,0,-0.1587,-0.1587,-0.1596,-0.1586,-0.1584,-0.1564,-0.1582,-0.1581,-0.1594,-0.1547,-0.1542,-0.1582,-0.1528,-0.152,-0.1502,-0.1504,-0.1483,-0.1481,-0.1433,-0.1433,-0.1433,-0.1487,0,0,0,0,0,0,-0.1589,-0.1589,-0.1615,-0.1586,-0.1584,-0.1585,-0.1581,-0.1581,-0.1576,-0.1577,-0.1555,-0.1547,-0.1527,-0.1506,-0.1499,-0.15,-0.1479,-0.1433,-0.1433,-0.1433,-0.1485,-0.149,-0.1493,0,0,0,0,0,-0.159,-0.1605,-0.1618,-0.1616,-0.1616,-0.1583,-0.1583,-0.1572,-0.1577,-0.1584,-0.1574,-0.1548,-0.1504,-0.1505,-0.1496,-0.1496,-0.1432,-0.1433,-0.1433,-0.1484,-0.1489,-0.1493,0,0,0,0,0,0,-0.1643,-0.1606,-0.1619,-0.1633,-0.1613,-0.1581,-0.158,-0.1577,-0.1579,-0.1586,-0.1554,-0.1546,-0.1523,-0.1506,-0.1507,-0.1482,-0.1462,-0.1461,-0.1503,-0.1508,-0.1512,-0.1511,-0.1477,0,0,0,0,0,-0.1662,-0.165,-0.1629,-0.1638,-0.1631,-0.1615,-0.1606,-0.1602,-0.1584,-0.1587,-0.1574,-0.1554,-0.152,-0.1512,-0.1484,-0.1478,-0.1444,-0.1471,-0.1475,-0.1478,-0.1472,-0.1446,-0.1447,-0.1435,-0.1435,-0.1435,0,0,-0.167,-0.1658,-0.1648,-0.1645,-0.1633,-0.1628,-0.1612,-0.1599,-0.1598,-0.1574,-0.1585,-0.1561,-0.1518,-0.1507,-0.1497,-0.1495,-0.146,-0.1479,-0.1482,-0.1474,-0.1446,-0.1447,-0.1448,-0.1436,-0.1436,-0.1436,0,0,-0.1663,-0.1688,-0.1671,-0.1665,-0.1645,-0.164,-0.1637,-0.1625,-0.1627,-0.1624,-0.1602,-0.159,-0.1555,-0.1535,-0.1511,-0.152,-0.1473,-0.1508,-0.1538,-0.1514,-0.1514,-0.1515,-0.146,-0.1454,-0.1522,-0.1522,-0.1522,0,-0.1676,-0.1674,-0.1662,-0.1658,-0.1642,-0.1646,-0.1635,-0.1643,-0.1632,-0.1615,-0.163,-0.1586,-0.1564,-0.1529,-0.1541,-0.1528,-0.1496,-0.1526,-0.1519,-0.1519,-0.1518,-0.1462,-0.1455,-0.1525,-0.1525,-0.1524,-0.1524,0,-0.1651,-0.1667,-0.1655,-0.1654,-0.1648,-0.1635,-0.1633,-0.1643,-0.1648,-0.164,-0.1616,-0.1614,-0.1583,-0.1581,-0.1565,-0.1548,-0.1518,-0.1519,-0.151,-0.1523,-0.1462,-0.1454,-0.1529,-0.1528,-0.1527,-0.1526,0,0,-0.1621,-0.1629,-0.1634,-0.1624,-0.1642,-0.1618,-0.1633,-0.161,-0.1591,-0.1623,-0.1596,-0.1588,-0.1597,-0.1574,-0.1569,-0.1569,-0.1544,-0.1553,-0.1551,-0.1501,-0.1463,-0.1361,-0.1342,-0.1548,-0.1547,-0.1547,-0.1418,0,-0.1601,-0.1589,-0.1603,-0.1589,-0.1573,-0.1587,-0.1588,-0.1581,-0.1576,-0.1567,-0.1578,-0.1554,-0.1591,-0.1581,-0.1594,-0.1555,-0.1529,-0.1577,-0.1454,-0.145,-0.1361,-0.1332,-0.1234,-0.1104,-0.141,-0.1409,-0.1408,0,-0.1571,-0.1562,-0.1552,-0.153,-0.1524,-0.1529,-0.15,-0.1501,-0.15,-0.1497,-0.1512,-0.1513,-0.1531,-0.1556,-0.1526,-0.1556,-0.1506,-0.1482,-0.1477,-0.1356,-0.1334,-0.1142,-0.1078,-0.1395,-0.1396,-0.1397,-0.1398,0,-0.1518,-0.1517,-0.1501,-0.15,-0.1497,-0.1484,-0.1481,-0.1476,-0.1448,-0.1458,-0.144,-0.1471,-0.1477,-0.1465,-0.1441,-0.1476,-0.1379,-0.1415,-0.1263,-0.1254,-0.113,-0.1111,-0.1348,-0.1348,-0.1348,-0.1348,-0.1349,0,-0.1465,-0.145,-0.1478,-0.1461,-0.1412,-0.1443,-0.1398,-0.139,-0.1396,-0.1353,-0.1411,-0.1391,-0.1455,-0.1416,-0.1405,-0.1305,-0.1346,-0.1243,-0.1211,-0.1143,-0.1128,-0.1357,-0.136,-0.1343,-0.1345,-0.1345,-0.1346,0,-0.1384,-0.1428,-0.1393,-0.1395,-0.1384,-0.1351,-0.1328,-0.1297,-0.1323,-0.1277,-0.128,-0.1316,-0.1276,-0.128,-0.1236,-0.1223,-0.1151,-0.1084,-0.0986,-0.0945,-0.1051,-0.1058,-0.0919,-0.0915,-0.0911,-0.0907,-0.0904,0,-0.1336,-0.132,-0.1313,-0.1294,-0.1289,-0.1259,-0.1231,-0.125,-0.1225,-0.1216,-0.1187,-0.1152,-0.1108,-0.1017,-0.0969,-0.088,-0.0975,-0.0736,-0.0789,-0.1022,-0.1006,-0.102,-0.1032,-0.0641,-0.0637,-0.0633,-0.063,0,-0.1214,-0.1237,-0.1205,-0.1173,-0.1153,-0.1101,-0.1076,-0.1048,-0.1076,-0.1045,-0.1009,-0.0976,-0.0888,-0.0776,-0.0661,-0.0617,-0.0763,-0.0651,-0.0901,-0.0769,-0.075,-0.0738,-0.0761,-0.0595,-0.0599,-0.0601,-0.0603,-0.0604,-0.1117,-0.108,-0.1073,-0.1023,-0.1005,-0.0955,-0.0888,-0.089,-0.0839,-0.0775,-0.0821,-0.0721,-0.0715,-0.0482,-0.0429,-0.0383,-0.0457,-0.0454,-0.047,-0.049,-0.0485,-0.046,-0.0248,-0.0249,-0.025,-0.0251,-0.0252,0,-0.0959,-0.0957,-0.0914,-0.0875,-0.0817,-0.0843,-0.078,-0.0716,-0.0642,-0.0592,-0.0543,-0.0411,-0.0305,-0.0291,-0.0149,-0.0129,-0.0185,-0.0134,-0.0218,-0.0248,-0.0276,-0.0268,0.0031,0.0031,0.0031,0.0032,0,0,-0.0885,-0.0809,-0.0795,-0.0695,-0.0678,-0.0583,-0.0531,-0.0454,-0.0392,-0.0275,-0.0197,-0.0214,-0.0222,-0.0085,-0.0064,0.0013,-0.0126,0.0025,-0.019,-0.0314,-0.0343,-0.0432,-0.0447,0,0,0,0,0]},{"header":{"parameterUnit":"m.s-1","parameterCategory":2,"la1":30.2991,"la2":30.254,"lo1":-89.0895,"lo2":-89.0444,"dy":0.0017,"dx":0.0017,"nx":28,"ny":28,"refTime":"2024-04-30T03:00:00:Z","depth":"2","parameterNumber":3,"parameterNumberName":"V-component_of_CURRENTS"},"data":[0,0,0,0,0,0,0,0,0,0,0,0,0,0,0,0,0,0,0,0,0,0,0,0,0,0,0,0,0,0,0,0,0,0,0,0,0,0,0,0,0,0,0,0,0,0,0,0,0,0,0,0,0,0,0,0,0,0,-0.0576,-0.0576,0,-0.0519,-0.0518,-0.0518,-0.0506,-0.0506,-0.0507,-0.0508,-0.0398,-0.0394,-0.0391,0,0,0,0,0,0,0,0,0,0,0,0,0,-0.0582,-0.0582,-0.0576,-0.0576,-0.0575,-0.0519,-0.0518,-0.0517,-0.0505,-0.0506,-0.0507,-0.0508,-0.0399,-0.0395,-0.039,0,0,0,0,0,0,0,0,0,0,0,0,0,-0.0555,-0.0582,-0.0576,-0.0565,-0.0564,-0.052,-0.0518,-0.0517,-0.0505,-0.0506,-0.0507,-0.0508,-0.04,-0.0395,-0.039,-0.0335,0,0,-0.0373,-0.0371,0,0,0,0,0,0,0,0,-0.0556,-0.0554,-0.0567,-0.0566,-0.0564,-0.0524,-0.048,-0.0455,-0.0505,-0.0524,-0.0508,-0.0509,-0.0436,-0.0428,-0.0411,-0.033,-0.0325,-0.0373,-0.037,-0.0367,-0.0366,0,0,0,0,0,0,0,-0.0558,-0.0556,-0.055,-0.0567,-0.0565,-0.0532,-0.0529,-0.0475,-0.0471,-0.0522,-0.0522,-0.0521,-0.0435,-0.0416,-0.0408,-0.0323,-0.0373,-0.0368,-0.0365,-0.0363,-0.0202,-0.0201,0,0,0,0,0,0,-0.0576,-0.0558,-0.0552,-0.0549,-0.0567,-0.0531,-0.0529,-0.0533,-0.0473,-0.0466,-0.052,-0.0521,-0.0425,-0.0415,-0.0404,-0.0347,-0.0367,-0.0362,-0.0359,-0.0203,-0.0202,-0.0201,0,0,0,0,0,0,-0.0576,-0.0576,-0.0554,-0.0554,-0.055,-0.0531,-0.0535,-0.0531,-0.0513,-0.0472,-0.0464,-0.0506,-0.0425,-0.0412,-0.0363,-0.0342,-0.036,-0.0355,-0.0204,-0.0203,-0.0201,-0.0224,0,0,0,0,0,0,-0.0577,-0.0576,-0.0577,-0.0556,-0.0551,-0.0545,-0.0534,-0.0529,-0.0512,-0.0512,-0.0457,-0.0449,-0.0425,-0.0371,-0.0358,-0.0335,-0.0351,-0.0206,-0.0204,-0.0202,-0.0225,-0.0224,-0.0223,0,0,0,0,0,-0.0577,-0.0586,-0.0577,-0.0576,-0.0555,-0.0546,-0.054,-0.0527,-0.051,-0.0511,-0.0469,-0.045,-0.0349,-0.0366,-0.035,-0.0326,-0.0206,-0.0204,-0.0202,-0.0225,-0.0224,-0.0223,0,0,0,0,0,0,-0.0594,-0.0585,-0.0575,-0.0582,-0.057,-0.0546,-0.0542,-0.0521,-0.0485,-0.0479,-0.0434,-0.0423,-0.0375,-0.0342,-0.0362,-0.0273,-0.0275,-0.0269,-0.0298,-0.0296,-0.0295,-0.0306,-0.0346,0,0,0,0,0,-0.0596,-0.0598,-0.0584,-0.0589,-0.0584,-0.0555,-0.0544,-0.0534,-0.0504,-0.0489,-0.0443,-0.0392,-0.0349,-0.032,-0.028,-0.0222,-0.0191,-0.0196,-0.0195,-0.0194,-0.0192,-0.0126,-0.0119,-0.0193,-0.0193,-0.0193,0,0,-0.0604,-0.0599,-0.0599,-0.0591,-0.0577,-0.0565,-0.0551,-0.0542,-0.0517,-0.0479,-0.0423,-0.0387,-0.0335,-0.0286,-0.0259,-0.0256,-0.0158,-0.0191,-0.0191,-0.0189,-0.0123,-0.0116,-0.0109,-0.0191,-0.0192,-0.0192,0,0,-0.0624,-0.0616,-0.0623,-0.0612,-0.0597,-0.0573,-0.057,-0.0536,-0.0511,-0.046,-0.0426,-0.0379,-0.0303,-0.0264,-0.0235,-0.0196,-0.016,-0.018,-0.0174,-0.011,-0.0104,-0.0098,-0.0058,-0.0049,-0.0173,-0.0173,-0.0173,0,-0.0635,-0.0636,-0.0623,-0.0623,-0.0609,-0.0577,-0.057,-0.0536,-0.0484,-0.0459,-0.045,-0.0332,-0.0292,-0.0224,-0.0218,-0.0194,-0.0161,-0.0187,-0.011,-0.0103,-0.0097,-0.0057,-0.0046,-0.0174,-0.0173,-0.0173,-0.0173,0,-0.0656,-0.065,-0.0654,-0.0635,-0.0617,-0.0611,-0.0567,-0.0534,-0.0491,-0.0458,-0.0387,-0.0324,-0.0259,-0.0234,-0.0214,-0.0143,-0.0137,-0.0124,-0.0119,-0.0091,-0.0051,-0.0039,-0.0175,-0.0174,-0.0174,-0.0174,0,0,-0.0702,-0.0674,-0.0675,-0.0657,-0.0621,-0.0608,-0.0565,-0.0521,-0.0487,-0.0425,-0.0373,-0.0295,-0.0263,-0.0227,-0.0182,-0.0123,-0.0055,-0.0106,-0.0102,-0.0077,0.0073,0.0046,0.0056,-0.0028,-0.0026,-0.0024,0.0078,0,-0.0722,-0.0719,-0.0695,-0.0669,-0.0656,-0.0609,-0.0569,-0.0523,-0.0473,-0.0415,-0.0345,-0.0286,-0.0258,-0.0222,-0.0158,-0.008,-0.0023,-0.0085,0.0052,0.0056,0.002,0.007,0.0045,0.0131,0.009,0.0092,0.0093,0,-0.0749,-0.0736,-0.0728,-0.067,-0.0661,-0.0641,-0.0572,-0.0531,-0.0457,-0.0419,-0.0351,-0.0299,-0.0204,-0.0185,-0.003,-0.0071,-0.0002,0.0057,0.0063,0.0054,0.0051,0.0102,0.0155,0.0114,0.0112,0.011,0.0109,0,-0.0783,-0.0752,-0.0742,-0.0728,-0.0669,-0.065,-0.061,-0.0543,-0.05,-0.0424,-0.0388,-0.0279,-0.0209,-0.0104,0.0009,-0.0002,0.0172,0.0173,0.0213,0.0211,0.0226,0.0221,0.0283,0.0282,0.0282,0.0282,0.0282,0,-0.081,-0.0795,-0.076,-0.0757,-0.0721,-0.0676,-0.0633,-0.0583,-0.0514,-0.0461,-0.0393,-0.0321,-0.0183,-0.0073,0.0019,0.0153,0.0185,0.0225,0.0246,0.0215,0.0208,0.022,0.0211,0.0286,0.0285,0.0284,0.0283,0,-0.0839,-0.0827,-0.0803,-0.0758,-0.074,-0.0715,-0.0644,-0.0606,-0.0552,-0.0479,-0.0455,-0.0332,-0.0193,-0.0068,0.0111,0.0167,0.0291,0.0326,0.0263,0.0274,0.0283,0.0272,0.0388,0.0388,0.0388,0.0388,0.0389,0,-0.085,-0.0849,-0.081,-0.0792,-0.0773,-0.073,-0.0694,-0.0629,-0.0588,-0.0477,-0.0438,-0.0306,-0.0186,0.004,0.0159,0.0309,0.0317,0.0352,0.0326,0.029,0.0299,0.0288,0.0277,0.0339,0.0338,0.0338,0.0338,0,-0.0858,-0.0855,-0.0839,-0.0806,-0.0778,-0.0724,-0.0675,-0.0649,-0.0568,-0.0506,-0.0386,-0.0287,-0.0094,0.0068,0.0219,0.0297,0.0321,0.0349,0.037,0.0297,0.0247,0.0253,0.0245,0.0335,0.0336,0.0336,0.0336,0.0336,-0.0862,-0.0854,-0.0843,-0.0802,-0.0766,-0.0713,-0.0666,-0.0611,-0.0538,-0.041,-0.0347,-0.0164,-0.0064,0.0188,0.0265,0.033,0.0331,0.035,0.035,0.0351,0.0308,0.0259,0.0341,0.0341,0.0341,0.0342,0.0342,0,-0.0863,-0.0853,-0.0826,-0.0782,-0.0732,-0.0712,-0.0639,-0.0574,-0.0481,-0.0345,-0.022,-0.0041,0.0088,0.0207,0.0302,0.0339,0.0339,0.0345,0.0334,0.0336,0.0337,0.0293,0.0323,0.0324,0.0324,0.0324,0,0,-0.0866,-0.0848,-0.0829,-0.0755,-0.0716,-0.0635,-0.0586,-0.048,-0.0365,-0.0181,-0.0036,0.0062,0.0165,0.0229,0.0253,0.0302,0.0315,0.0305,0.0311,0.0293,0.0295,0.0323,0.0254,0,0,0,0,0]}],[{"header":{"parameterUnit":"m.s-1","parameterCategory":2,"la1":30.2991,"la2":30.254,"lo1":-89.0895,"lo2":-89.0444,"dy":0.0017,"dx":0.0017,"nx":28,"ny":28,"refTime":"2024-04-30T03:00:00:Z","depth":"4","parameterNumber":2,"parameterNumberName":"U-component_of_CURRENTS"},"data":[0,0,0,0,0,0,0,0,0,0,0,0,0,0,0,0,0,0,0,0,0,0,0,0,0,0,0,0,0,0,0,0,0,0,0,0,0,0,0,0,0,0,0,0,0,0,0,0,0,0,0,0,0,0,0,0,0,0,-0.0384,-0.0385,0,-0.0493,-0.0494,-0.0494,-0.0497,-0.0496,-0.0495,-0.0495,-0.0567,-0.057,-0.0572,0,0,0,0,0,0,0,0,0,0,0,0,0,-0.0383,-0.0381,-0.0383,-0.0385,-0.0387,-0.0493,-0.0494,-0.0495,-0.0497,-0.0496,-0.0495,-0.0494,-0.0566,-0.0569,-0.0572,0,0,0,0,0,0,0,0,0,0,0,0,0,-0.042,-0.038,-0.0383,-0.0406,-0.041,-0.0493,-0.0494,-0.0495,-0.0497,-0.0496,-0.0495,-0.0494,-0.0565,-0.0569,-0.0573,-0.0618,0,0,-0.0585,-0.0586,0,0,0,0,0,0,0,0,-0.0417,-0.0418,-0.0401,-0.0405,-0.0409,-0.0486,-0.0521,-0.0537,-0.0497,-0.0457,-0.0495,-0.0493,-0.0542,-0.0548,-0.0561,-0.0622,-0.0625,-0.0585,-0.0587,-0.0589,-0.059,0,0,0,0,0,0,0,-0.0414,-0.0415,-0.042,-0.0403,-0.0409,-0.0483,-0.0484,-0.0524,-0.0498,-0.046,-0.0462,-0.0486,-0.0543,-0.0557,-0.0563,-0.0626,-0.0585,-0.0588,-0.0591,-0.0592,-0.0712,-0.0712,0,0,0,0,0,0,-0.0405,-0.0411,-0.0416,-0.0424,-0.0419,-0.0484,-0.0485,-0.0457,-0.0498,-0.0506,-0.0487,-0.0486,-0.0551,-0.0558,-0.0566,-0.0626,-0.0589,-0.0593,-0.0595,-0.0711,-0.0712,-0.0713,0,0,0,0,0,0,-0.0404,-0.0402,-0.0412,-0.043,-0.0437,-0.0484,-0.0453,-0.046,-0.0495,-0.052,-0.0525,-0.0518,-0.0551,-0.056,-0.0607,-0.0628,-0.0594,-0.0598,-0.071,-0.0711,-0.0712,-0.0744,0,0,0,0,0,0,-0.0402,-0.04,-0.0397,-0.0426,-0.0435,-0.0462,-0.0456,-0.0463,-0.0514,-0.0514,-0.0549,-0.0553,-0.0551,-0.0601,-0.061,-0.0633,-0.0601,-0.0709,-0.071,-0.0712,-0.0742,-0.0746,-0.075,0,0,0,0,0,-0.0401,-0.0407,-0.0395,-0.0398,-0.0421,-0.0464,-0.0475,-0.0503,-0.0516,-0.0531,-0.0554,-0.0553,-0.0617,-0.0605,-0.0616,-0.064,-0.0708,-0.071,-0.0712,-0.074,-0.0745,-0.075,0,0,0,0,0,0,-0.0415,-0.041,-0.0396,-0.04,-0.0428,-0.0467,-0.0504,-0.0524,-0.0557,-0.056,-0.0577,-0.0583,-0.0627,-0.0635,-0.0622,-0.0677,-0.0658,-0.0663,-0.0676,-0.0681,-0.0685,-0.065,-0.0604,0,0,0,0,0,-0.0413,-0.0403,-0.0419,-0.0423,-0.0439,-0.0475,-0.0508,-0.0518,-0.0551,-0.0566,-0.0597,-0.0621,-0.0644,-0.0663,-0.0683,-0.073,-0.0712,-0.0747,-0.0751,-0.0755,-0.0733,-0.0732,-0.0734,-0.0719,-0.0719,-0.0719,0,0,-0.042,-0.0421,-0.0415,-0.0427,-0.0451,-0.047,-0.0489,-0.0534,-0.0554,-0.057,-0.0621,-0.0645,-0.0659,-0.0694,-0.0715,-0.0705,-0.0753,-0.0757,-0.076,-0.0736,-0.0734,-0.0735,-0.0736,-0.072,-0.072,-0.072,0,0,-0.0438,-0.0427,-0.0427,-0.0448,-0.0486,-0.0498,-0.0515,-0.056,-0.0584,-0.0635,-0.0643,-0.0674,-0.0733,-0.0731,-0.074,-0.0783,-0.0775,-0.0803,-0.08,-0.08,-0.0801,-0.0801,-0.0793,-0.0792,-0.0805,-0.0805,-0.0805,0,-0.0447,-0.0436,-0.0444,-0.046,-0.0487,-0.0508,-0.0528,-0.0554,-0.0611,-0.0636,-0.0649,-0.0718,-0.0738,-0.076,-0.0767,-0.079,-0.0788,-0.0783,-0.0804,-0.0804,-0.0804,-0.0795,-0.0793,-0.0807,-0.0807,-0.0806,-0.0806,0,-0.0458,-0.0464,-0.0479,-0.0476,-0.0505,-0.0532,-0.0558,-0.0595,-0.0632,-0.0654,-0.0706,-0.0733,-0.0766,-0.0785,-0.0791,-0.0806,-0.0805,-0.081,-0.0789,-0.0807,-0.0797,-0.0795,-0.0809,-0.0809,-0.0808,-0.0808,0,0,-0.0425,-0.047,-0.0472,-0.0487,-0.0517,-0.0539,-0.0574,-0.0607,-0.0635,-0.0681,-0.0721,-0.0755,-0.0773,-0.0781,-0.0801,-0.0799,-0.0807,-0.0806,-0.0805,-0.0791,-0.0806,-0.0726,-0.0716,-0.0825,-0.0824,-0.0824,-0.0803,0,-0.0427,-0.0453,-0.0479,-0.0509,-0.0526,-0.0562,-0.0595,-0.0628,-0.0664,-0.0706,-0.0728,-0.0766,-0.077,-0.0798,-0.0796,-0.0806,-0.0801,-0.0811,-0.0794,-0.0793,-0.0715,-0.0711,-0.0823,-0.0801,-0.0801,-0.0801,-0.08,0,-0.0417,-0.0439,-0.0468,-0.0527,-0.054,-0.0559,-0.061,-0.0648,-0.0692,-0.0727,-0.0753,-0.0775,-0.0783,-0.0792,-0.0784,-0.0796,-0.0796,-0.0794,-0.0794,-0.0698,-0.0709,-0.0777,-0.0796,-0.0797,-0.0797,-0.0797,-0.0797,0,-0.0376,-0.0433,-0.0456,-0.0473,-0.0534,-0.0565,-0.06,-0.0649,-0.0688,-0.0735,-0.0758,-0.0774,-0.079,-0.0785,-0.0778,-0.0792,-0.076,-0.0783,-0.0706,-0.0701,-0.0766,-0.0766,-0.0768,-0.0768,-0.0768,-0.0768,-0.0768,0,-0.0356,-0.038,-0.0442,-0.0448,-0.0494,-0.055,-0.0598,-0.0638,-0.0696,-0.072,-0.0763,-0.0768,-0.079,-0.078,-0.0774,-0.0716,-0.0757,-0.0683,-0.0682,-0.0783,-0.0785,-0.0765,-0.0765,-0.0767,-0.0767,-0.0768,-0.0768,0,-0.031,-0.0349,-0.038,-0.0444,-0.0472,-0.0504,-0.0592,-0.0624,-0.0682,-0.0714,-0.0729,-0.0763,-0.0735,-0.0737,-0.0724,-0.0698,-0.0663,-0.0638,-0.073,-0.0738,-0.0609,-0.0611,-0.0547,-0.0544,-0.0541,-0.0539,-0.0537,0,-0.0276,-0.0286,-0.0356,-0.0376,-0.0408,-0.0471,-0.0513,-0.0603,-0.0634,-0.0691,-0.0694,-0.0693,-0.0698,-0.0606,-0.0621,-0.0584,-0.058,-0.057,-0.0591,-0.0576,-0.0582,-0.0589,-0.0594,-0.0533,-0.0532,-0.0531,-0.053,0,-0.0201,-0.0234,-0.0258,-0.0302,-0.0348,-0.0416,-0.0479,-0.0503,-0.0593,-0.0647,-0.0625,-0.0606,-0.0569,-0.0543,-0.0515,-0.0496,-0.0579,-0.0542,-0.0548,-0.0568,-0.0559,-0.0568,-0.0577,-0.0521,-0.0523,-0.0523,-0.0524,0,-0.0119,-0.013,-0.0156,-0.0211,-0.0271,-0.0327,-0.0393,-0.043,-0.0479,-0.0553,-0.0533,-0.0529,-0.055,-0.0496,-0.0469,-0.0436,-0.0435,-0.0433,-0.0445,-0.0455,-0.0433,-0.0408,-0.0303,0,0,0,0,0,-0.0003,-0.0019,-0.0058,-0.0107,-0.0182,-0.0223,-0.0343,-0.0415,-0.0506,-0.0467,-0.0503,-0.0462,-0.0416,-0.0418,-0.0362,-0.0426,-0.0438,-0.036,-0.0443,-0.047,-0.048,-0.0462,0,0,0,0,0,0,0.0081,0.0061,-0.0007,-0.0019,-0.0042,-0.0117,-0.02,-0.0283,-0.0284,-0.0363,-0.034,-0.0387,-0.0351,-0.0395,-0.0321,-0.0324,-0.0361,-0.0366,-0.0364,-0.0464,-0.0473,-0.0482,-0.0467,0,0,0,0,0]},{"header":{"parameterUnit":"m.s-1","parameterCategory":2,"la1":30.2991,"la2":30.254,"lo1":-89.0895,"lo2":-89.0444,"dy":0.0017,"dx":0.0017,"nx":28,"ny":28,"refTime":"2024-04-30T03:00:00:Z","depth":"4","parameterNumber":3,"parameterNumberName":"V-component_of_CURRENTS"},"data":[0,0,0,0,0,0,0,0,0,0,0,0,0,0,0,0,0,0,0,0,0,0,0,0,0,0,0,0,0,0,0,0,0,0,0,0,0,0,0,0,0,0,0,0,0,0,0,0,0,0,0,0,0,0,0,0,0,0,-0.0359,-0.0359,0,-0.0368,-0.0368,-0.0368,-0.0351,-0.035,-0.035,-0.0349,-0.0325,-0.0325,-0.0325,0,0,0,0,0,0,0,0,0,0,0,0,0,-0.0283,-0.0285,-0.0359,-0.0359,-0.0359,-0.0368,-0.0368,-0.0368,-0.0351,-0.035,-0.035,-0.0349,-0.0325,-0.0325,-0.0325,0,0,0,0,0,0,0,0,0,0,0,0,0,-0.0307,-0.0286,-0.0359,-0.0351,-0.0351,-0.0368,-0.0368,-0.0368,-0.0351,-0.035,-0.0349,-0.0349,-0.0325,-0.0325,-0.0325,-0.0342,0,0,-0.0324,-0.0324,0,0,0,0,0,0,0,0,-0.0306,-0.031,-0.0352,-0.0352,-0.0351,-0.0357,-0.0333,-0.0358,-0.0351,-0.0351,-0.0349,-0.0348,-0.0333,-0.0332,-0.0337,-0.0341,-0.034,-0.0324,-0.0324,-0.0324,-0.0324,0,0,0,0,0,0,0,-0.0304,-0.0309,-0.0363,-0.0353,-0.0352,-0.0333,-0.0336,-0.0337,-0.0347,-0.0351,-0.035,-0.0351,-0.0333,-0.0337,-0.0336,-0.0339,-0.0324,-0.0324,-0.0324,-0.0324,-0.0324,-0.0324,0,0,0,0,0,0,-0.0306,-0.0308,-0.0362,-0.0363,-0.0326,-0.0335,-0.0338,-0.0356,-0.0347,-0.0345,-0.0352,-0.035,-0.0338,-0.0336,-0.0335,-0.0327,-0.0324,-0.0324,-0.0324,-0.0324,-0.0324,-0.0324,0,0,0,0,0,0,-0.0305,-0.0312,-0.0362,-0.0334,-0.0339,-0.0338,-0.0358,-0.0357,-0.0366,-0.0348,-0.0345,-0.0362,-0.0337,-0.0335,-0.0333,-0.0327,-0.0324,-0.0324,-0.0324,-0.0324,-0.0324,-0.0328,0,0,0,0,0,0,-0.0303,-0.0312,-0.0331,-0.0335,-0.0341,-0.0373,-0.0359,-0.0358,-0.0368,-0.0366,-0.0356,-0.0352,-0.0336,-0.0334,-0.0333,-0.0326,-0.0324,-0.0324,-0.0324,-0.0324,-0.0328,-0.0329,-0.0329,0,0,0,0,0,-0.0301,-0.0331,-0.0333,-0.0339,-0.0367,-0.0373,-0.0375,-0.037,-0.0369,-0.0375,-0.0364,-0.0353,-0.0334,-0.0334,-0.0333,-0.0326,-0.0324,-0.0324,-0.0324,-0.0328,-0.0328,-0.0329,0,0,0,0,0,0,-0.0316,-0.0332,-0.0334,-0.0371,-0.0371,-0.037,-0.038,-0.0379,-0.0379,-0.0378,-0.036,-0.0356,-0.035,-0.0344,-0.0345,-0.0327,-0.0325,-0.0325,-0.0328,-0.0328,-0.0329,-0.0324,-0.0324,0,0,0,0,0,-0.0328,-0.0351,-0.0357,-0.0386,-0.0388,-0.0387,-0.0393,-0.039,-0.0387,-0.0387,-0.0378,-0.0367,-0.0351,-0.0345,-0.0336,-0.0335,-0.0312,-0.0328,-0.0329,-0.0329,-0.0325,-0.0276,-0.0271,-0.0325,-0.0325,-0.0325,0,0,-0.0341,-0.0354,-0.0368,-0.0389,-0.0391,-0.0393,-0.0389,-0.04,-0.0397,-0.0385,-0.0384,-0.0373,-0.0353,-0.0342,-0.0338,-0.0335,-0.0305,-0.0329,-0.033,-0.0325,-0.0276,-0.027,-0.0266,-0.0325,-0.0325,-0.0325,0,0,-0.0364,-0.0391,-0.0407,-0.0409,-0.0414,-0.0411,-0.0416,-0.0419,-0.0415,-0.0415,-0.0397,-0.0383,-0.0375,-0.0348,-0.0334,-0.0336,-0.0311,-0.0338,-0.0333,-0.0285,-0.028,-0.0275,-0.0251,-0.0244,-0.0335,-0.0335,-0.0335,0,-0.0375,-0.0401,-0.0411,-0.0418,-0.0419,-0.0418,-0.0422,-0.042,-0.0421,-0.0412,-0.0414,-0.0381,-0.0371,-0.0335,-0.0334,-0.0335,-0.0313,-0.0331,-0.0284,-0.0279,-0.0274,-0.025,-0.0242,-0.0335,-0.0335,-0.0335,-0.0335,0,-0.0397,-0.0415,-0.0425,-0.043,-0.0434,-0.0441,-0.0434,-0.0436,-0.0434,-0.0421,-0.0398,-0.038,-0.0354,-0.0349,-0.0344,-0.0303,-0.0301,-0.0292,-0.028,-0.0268,-0.0245,-0.0236,-0.0335,-0.0335,-0.0335,-0.0335,0,0,-0.0422,-0.0435,-0.0439,-0.0437,-0.0441,-0.0444,-0.0441,-0.0428,-0.0413,-0.0408,-0.0381,-0.0359,-0.0347,-0.0331,-0.0316,-0.028,-0.0235,-0.0275,-0.0273,-0.0247,-0.0143,-0.0171,-0.0164,-0.0213,-0.0211,-0.021,-0.0146,0,-0.0429,-0.0441,-0.0448,-0.0453,-0.0451,-0.0449,-0.044,-0.0429,-0.0414,-0.0389,-0.036,-0.0332,-0.0338,-0.0323,-0.0288,-0.0247,-0.0211,-0.0255,-0.0163,-0.016,-0.0181,-0.0154,-0.0205,-0.0139,-0.0137,-0.0136,-0.0135,0,-0.0444,-0.0446,-0.0454,-0.0448,-0.0449,-0.0454,-0.0436,-0.0426,-0.0389,-0.0374,-0.0341,-0.0317,-0.0272,-0.0276,-0.0193,-0.0221,-0.0185,-0.0154,-0.015,-0.0166,-0.0171,-0.0151,-0.0119,-0.012,-0.0122,-0.0123,-0.0124,0,-0.0443,-0.0452,-0.0457,-0.0458,-0.0451,-0.0456,-0.0452,-0.0424,-0.0404,-0.0361,-0.0337,-0.0284,-0.0253,-0.0197,-0.0157,-0.0164,-0.0066,-0.0062,-0.0051,-0.0053,-0.0046,-0.0052,0.0008,0.0008,0.0008,0.0008,0.0008,0,-0.0442,-0.0445,-0.0461,-0.0461,-0.0463,-0.0459,-0.0447,-0.0433,-0.0396,-0.0361,-0.0329,-0.0288,-0.0229,-0.0175,-0.0137,-0.0078,-0.0048,-0.0043,-0.0031,-0.0053,-0.006,-0.0041,-0.0048,0.001,0.001,0.0009,0.0009,0,-0.043,-0.0444,-0.0449,-0.0456,-0.0463,-0.0464,-0.0457,-0.0432,-0.0404,-0.0357,-0.0342,-0.028,-0.0216,-0.0165,-0.0074,-0.0054,0.0007,0.0021,-0.0021,-0.0014,-0.0016,-0.0024,0.0055,0.0054,0.0054,0.0054,0.0054,0,-0.0417,-0.0421,-0.0449,-0.0456,-0.0464,-0.0467,-0.0459,-0.0442,-0.0414,-0.0349,-0.032,-0.0256,-0.0216,-0.0105,-0.0064,0.0008,0.0012,0.0042,0.0025,-0.0012,-0.0007,-0.0015,-0.0022,0.0053,0.0053,0.0053,0.0053,0,-0.0377,-0.0402,-0.0407,-0.043,-0.0441,-0.044,-0.0433,-0.0418,-0.0381,-0.0362,-0.0284,-0.0229,-0.0162,-0.01,-0.0056,-0.0003,0.0023,0.004,0.0041,0.0026,-0.0012,-0.0009,-0.0016,0.0052,0.0053,0.0053,0.0053,0,-0.0344,-0.0346,-0.0364,-0.038,-0.0401,-0.0397,-0.0408,-0.0374,-0.0349,-0.0294,-0.0272,-0.0202,-0.0167,-0.0105,-0.0059,-0.0021,-0.0008,0.001,0.0013,0.0014,-0.003,-0.0086,-0.0022,0,0,0,0,0,-0.0281,-0.0276,-0.0301,-0.0317,-0.0345,-0.0352,-0.0368,-0.0374,-0.036,-0.0302,-0.0285,-0.0224,-0.0146,-0.0112,-0.0075,-0.0072,-0.0012,-0.0029,0.0007,0.0048,0.0049,0.0001,0,0,0,0,0,0,-0.0231,-0.0245,-0.0273,-0.026,-0.0263,-0.0277,-0.0291,-0.0294,-0.0268,-0.0257,-0.0218,-0.02,-0.0133,-0.015,-0.0061,-0.0052,-0.0023,0.0003,0.0003,0.0048,0.0049,0.0049,0.0,0,0,0,0,0]}]]